www.pogodaiklimat.ru

Погода и климат >> Архив погоды >> Россия >> Саратовская область >> Балаково


ПОГОДА в Балаково

АРХИВ ПОГОДЫ в Балаково

Время (UTC), дата Ветер
(напр.,м/с)
 
Видим.   Явления Облачность Т
(С)
Тd
(С)
f
(%)
Тe
(С)
Тes
(С)
Комфортность P
(гПа)
Po
(гПа)
Тmin
(С)
Tmax
(С)
R
(мм)
R24
(мм)
S
(см)
06 15.09 З 3 10 км в посл. час ливневой дождь 8/4 200 м
[Cb cap Ac cuf Ci fib]
+13.6 +12.7 94 +12 +14 по сезону 1015.0 1011.6 +13.0
09 15.09 СЗ 4 20 км 5/5 1000 м
[Cu med, cong]
+18.8 +8.9 53 +19 +22 тепло 1014.4 1011.0
12 15.09 СЗ 3 20 км 10/4 1000 м
[Sc diur, vesp Ac As]
+18.4 +4.6 40 +19 +19 тепло 1013.6 1010.2
15 15.09 З 3 20 км 3/3 1000 м
[Cu med, cong]
+16.1 +3.1 42 +16 +16 тепло 1013.6 1010.2 +19.7 0.7
18 15.09 З 3
{12}
20 км ясно +11.3 +4.8 64 +10 +10 по сезону 1014.7 1011.3
21 15.09 ЮЗ 3 20 км ясно +8.3 +4.2 75 +6 +6 прохладно 1014.5 1011.0
00 16.09 ЮЗ 2 20 км 10/0
[Cs]
+7.8 +4.8 81 +6 +6 по сезону 1014.1 1010.6
03 16.09 ЮЗ 3 20 км 10/0
[Cs]
+8.1 +5.1 81 +5 +5 прохладно 1013.0 1009.5 +3.4
06 16.09 ЮЗ 6
{10}
20 км 10/0
[Ac und]
+14.4 +4.8 52 +13 +13 по сезону 1010.7 1007.3
09 16.09 ЮЗ 9-14
{14}
20 км 10/0
[Ac und]
+18.7 +3.1 35 +18 +18 тепло 1008.2 1004.9
12 16.09 ЮЗ 5
{16}
20 км 10/0
[Ac und]
+20.2 +2.9 32 +20 +21 тепло 1005.3 1002.0
15 16.09 ЮЗ 4
{11}
20 км 10/0
[Ac und]
+20.2 +2.7 31 +21 +21 комфорт 1003.8 1000.5 +21.1
18 16.09 З 4 20 км 10/0
[Ac und]
+18.5 +4.2 39 +19 +19 тепло 1004.3 1000.9
21 16.09 ЮЗ 2 20 км 3/0
[Ac trans]
+14.8 +6.5 58 +15 +15 тепло 1004.2 1000.9
00 17.09 ЮЗ 2 20 км 3/0
[Ac trans]
+11.7 +6.3 69 +11 +11 тепло 1004.1 1001.1
03 17.09 Ю 2 20 км 8/0
[Ac trans]
+10.7 +5.9 72 +10 +10 по сезону 1004.4 1001.0 +9.4
06 17.09 ЮЗ 3 20 км 8/0
[Ac trans]
+16.6 +7.7 56 +16 +19 тепло 1004.3 1001.0
09 17.09 ЮЗ 5
{11}
20 км 10/0
[Ac und]
+19.3 +6.7 44 +20 +21 тепло 1003.0 999.7
12 17.09 ЮЗ 5
{10}
20 км 10/4 1000 м
[Cu med, cong Ac trans Ci fib]
+21.5 +5.6 35 +22 +23 комфорт 1001.9 998.6
15 17.09 Ю 3
{10}
20 км 10/0
[Ac cuf Cs]
+18.9 +6.2 43 +20 +20 тепло 1001.0 997.7 +21.6
18 17.09 ЮЗ 5 20 км 10/4 1000 м
[Cb calv Ac As]
+17.8 +7.8 52 +17 +17 тепло 1001.5 998.2
21 17.09 ЮЗ 3
{10}
20 км {ливн. осадки} 10/0
[Ac und]
+14.5 +10.9 79 +14 +14 тепло 1001.3 997.9
00 18.09 З 2 20 км {ливн. осадки} 3/0
[Ac trans]
+12.2 +9.0 81 +11 +11 тепло 1002.2 998.8
03 18.09 ЮЗ 2 20 км ясно +7.7 +5.3 85 +6 +6 прохладно 1003.5 1000.1 +7.7 0.0
06 18.09 З 4 20 км 4/0
[Ci fib]
+15.5 +4.2 47 +15 +18 тепло 1004.6 1001.2 +7.4
09 18.09 З 5
{10}
20 км 10/5 1000 м
[Cu Sc Ac trans Ci fib]
+18.3 +2.8 36 +18 +19 тепло 1004.1 1000.7
12 18.09 ЮЗ 3 20 км 8/6 1000 м
[Cb cap Ac trans]
+19.0 +2.8 34 +19 +20 тепло 1002.8 999.5
15 18.09 Ю 2
{10}
20 км 9/5 1000 м
[Cb cap Ac trans]
+18.2 +2.3 35 +19 +19 тепло 1000.6 997.2 +20.2
18 18.09 Ю 2 20 км {ливн. осадки} 10/8 1000 м
[Cb cap Ac As]
+13.7 +8.5 71 +13 +13 тепло 997.9 994.5
21 18.09 ЮЗ 7-11
{11}
20 км {ливн. осадки} 10/8 1000 м
[Cb cap Ac und]
+12.4 +11.3 93 +9 +9 по сезону 994.5 991.1
00 19.09 ЮЗ 8-13
{18}
20 км {ливн. осадки} 6/0
[Ac trans]
+9.5 +5.3 75 +5 +5 по сезону 995.7 992.2
03 19.09 ЮЗ 8-13
{14}
20 км 8/6 1000 м
[Cb cap Ac trans]
+9.5 +4.4 70 +5 +5 прохладно 997.4 994.0 +8.7 0.0
06 19.09 ЮЗ 5
{16}
10 км слаб. ливневой дождь 10/10 600 м
[Cb cap]
+8.4 +6.4 87 +5 +5 холодно 1000.5 997.1 +8.4
09 19.09 З 6-12
{13}
20 км {ливн. осадки} 6/6 600 м
[Cb calv]
+14.8 +6.1 56 +13 +15 по сезону 1005.7 1002.3
12 19.09 ЮЗ 6
{15}
20 км в посл. час ливневой дождь 9/5 1000 м
[Cb calv Ac cuf]
+13.3 +7.1 66 +11 +11 холодно 1009.3 1005.9
15 19.09 З 4
{11}
20 км в посл. час ливневой дождь 8/4 1000 м
[Cb cap Ac cuf]
+13.1 +4.8 57 +12 +12 по сезону 1011.4 1008.0 +17.1 0.0
18 19.09 ЮЗ 2 20 км {ливн. осадки} 3/0
[Ac trans]
+8.4 +4.7 78 +7 +7 прохладно 1013.3 1009.8
21 19.09 ЮЗ 3 20 км 4/0
[Ac trans]
+7.3 +4.3 81 +4 +4 прохладно 1013.4 1009.9
00 20.09 ЮЗ 2 20 км 3/0
[Ac trans]
+6.0 +5.1 94 +3 +3 прохладно 1014.4 1010.9
03 20.09 ЮЗ 3 20 км 4/0
[Ac trans]
+5.6 +5.1 97 +2 +2 холодно 1014.8 1011.3 +5.4
06 20.09 ЮЗ 3 20 км 10/0
[Ac und]
+10.6 +7.1 79 +9 +10 по сезону 1015.7 1012.2 +5.3
09 20.09 ЮЗ 5 20 км 9/8 1000 м
[Cb calv Ac trans]
+15.2 +4.5 49 +14 +15 по сезону 1014.6 1011.2
12 20.09 ЮЗ 5 20 км 9/8 1000 м
[Cb calv Ac trans]
+15.8 +3.0 42 +15 +15 по сезону 1013.6 1010.2
15 20.09 Ю 2 20 км 10/0
[Ac cuf Ci fib]
+12.2 +4.3 58 +11 +11 по сезону 1013.3 1009.8 +16.7
18 20.09 ЮВ 1 20 км 8/0
[Ci fib]
+8.0 +4.3 77 +7 +7 по сезону 1013.3 1009.9
21 20.09 Ю 1 20 км 10/0
[Ac trans Ci fib]
+7.9 +5.3 84 +7 +7 по сезону 1012.7 1009.2
00 21.09 З 1 20 км 10/0
[Ac und]
+6.6 +4.3 85 +6 +6 по сезону 1011.6 1008.1
03 21.09 З 1 20 км 10/3 1000 м
[Cb calv Ac As]
+8.0 +6.1 88 +7 +7 по сезону 1011.1 1007.6 +5.6
06 21.09 СЗ 1 20 км {ливн. осадки} 8/0
[Ac cast Ci fib]
+11.0 +6.7 75 +11 +14 по сезону 1010.4 1006.9
09 21.09 СЗ 3 20 км 8/8 1000 м
[Cb calv Ac trans]
+13.9 +5.2 56 +13 +14 по сезону 1009.2 1005.8
12 21.09 СЗ 4 20 км 8/8 1000 м
[Cb calv]
+14.1 +3.4 48 +13 +13 прохладно 1008.4 1005.0
15 21.09 В 1 20 км 8/8 1000 м
[Cb calv]
+9.3 +4.5 72 +9 +9 прохладно 1008.4 1005.0 +15.4 0.1
18 21.09 В 2 20 км {гроза, ливн. осадки} 6/0
[Ac trans]
+7.8 +4.4 79 +6 +6 прохладно 1008.5 1005.0
21 21.09 ЮЗ 2 20 км 9/0
[Ac trans]
+7.4 +4.6 82 +5 +5 прохладно 1007.8 1004.3
00 22.09 З 4 20 км 10/0
[Ac und]
+7.2 +4.5 83 +4 +4 прохладно 1006.9 1003.4
03 22.09 З 4 20 км 4/3 1000 м
[Sc Ac trans]
+4.9 +3.4 90 +1 +1 очень
холодно
1007.3 1003.8 +4.9 0.3

 

Местоположение метеостанции Балаково (Саратовская область, Россия): широта 52.02 долгота 47.82 высота над уровнем моря 31 м.

В архиве по умолчанию представлена погода в Балаково за последнюю неделю. Архивные данные за месяц целиком и за предыдущие месяцы, начиная с января 2011 года, Вы можете получить, выбрав интересующий диапазон дат из раскрывающегося списка и нажав кнопку "Ввод!".


*Определитесь, кто Вы:
робот инопланетянин человек

Внимание! Время в таблицах - всемирное. Для получения местного времени необходимо прибавить поправку, которая равна 4 ч.

Смотрите также архив погоды в соседних городах и на ближайших метеорологических станциях:

Погода в Хвалынске (Саратовская область, Россия) (56 км)
Погода в Пугачеве (Саратовская область, Россия) (69 км)
Погода в Ершове (Саратовская область, Россия) (80 км)
Погода в Маркс (Саратовская область, Россия) (83 км)
Погода в Карабулаке (Саратовская область, Россия) (105 км)
Погода в Приволжье (Самарская область, Россия) (109 км)
Погода в Канадее (Ульяновская область, Россия) (127 км)
Погода в Красном Куте (Саратовская область, Россия) (133 км)
Погода в Саратове (Саратовская область, Россия) (133 км)
Погода в Саратове ЮВ (Саратовская область, Россия) (135 км)

Пояснения к столбцам:

Ветер - указаны скорость ветра в м/с - средняя за 10 мин, порывы в срок и между сроками (в фигурных скобках) и направление, откуда дует ветер: С - северный, СВ - северо-восточный, В - восточный, ЮВ - юго-восточный, Ю - южный, ЮЗ - юго-западный, З - западный, СЗ - северо-западный.
Видимость - горизонтальная дальность видимости в метрах или километрах. При видимости от 1 до 10 км при отсутствии осадков обычно наблюдается дымка, при ухудшении видимости до 1 км и менее - туман. В сухую погоду видимость может ухудшаться дымом, пылью или мглою.
Явления - указаны атмосферные явления, наблюдавшиеся в срок или в последний час перед сроком; фигурными скобками обозначены явления, наблюдавшиеся между сроками (за 1-3 часа до срока); квадратными скобками обозначены град или гололедные отложения с указанием их диаметра в мм.
Облачность - указаны через наклонную черту общая и нижняя облачность в баллах и высота нижней границы облаков в метрах; квадратными скобками обозначены формы облаков: Ci - перистые, Cs - перисто-слоистые, Cc - перисто-кучевые, Ac - высококучевые, As - высокослоистые, Sc - слоисто-кучевые, Ns - слоисто-дождевые, Cu - кучевые, Cb - кучево-дождевые. Подробнее классификацию облаков см. в Атласе облаков (PDF).
T - Температура воздуха - температура, измеренная на высоте 2 м над землей.
Td - Температура точки росы - температура, при понижении до которой содержащийся в воздухе водяной пар достигнет насыщения.
f - Относительная влажность воздуха - влажноcть воздуха, измеренная на высоте 2 м над землей.
Te - Эффективная температура - температура, которую ощущает одетый по сезону человек в тени. Характеристика душности погоды. При расчете учитывается влияние влажности воздуха и скорости ветра на теплоощущения человека.
Tes - Эффективная температура на солнце - температура, которую ощущает человек, с поправкой на солнечный нагрев. Характеристика знойности погоды. Зависит от высоты солнца над горизонтом, облачности и скорости ветра. Ночью, в пасмурную погоду, а также при ветре 12 м/с и более поправка равна нулю.
P - Атмосферное давление - приведенное к уровню моря атмосферное давление.
Po - Атмосферное давление - измеренное на уровне метеостанции атмосферное давление.
Tmin - Минимальная температура - минимум температуры воздуха на высоте 2 м над землей.
Tmax - Максимальная температура - максимум температуры воздуха на высоте 2 м над землей.
R - Количество осадков - Количество выпавших осадков за период времени, мм. При наведении курсора мыши на число - период времени, за который выпало указанное количество осадков.
R24 - Количество осадков - Количество выпавших осадков за 24 часа, мм.
S - Снежный покров - Высота снежного покрова, см. При наведении курсора мыши на число - состояние снежного покрова и степень покрытия местности в баллах.